SL-8 DEB, 21161

Orbit data source: Space-Track

SL-8 DEB, 21161 is space debris in LEO originally from a launch on Tue, 12 Feb 1991 UTC launched from the Plesetsk Missile And Space Complex (PKMTR). Debris objects in space refer to the collection of defunct objects orbiting the Earth. Examples of debris include non-operational satellites, rocket bodies, and fragments generated from explosions, collisions, or faulty payload assembly.

Loading next visibility...
Identifier
21161, 1991-009Y
Orbit
LEO
Country
Flag of CISCIS
Related business
Manufacturer
Unknown
Mission
Spacecraft
Bus & Motor
Unknown
Mass
Unknown
Launch date (UTC)
1991-02-12 (35 years ago)
Launch vehicle
Unknown
Launch site
Plesetsk Missile And Space Complex (PKMTR)
Object type
Payload
Rocket body
Debris
Shape & HBR
Unknown shape, 0.4 m
Radar Cross Section
Medium (>0.1 m² and <1 m²)

Expand to show TLE details & history
Last TLE update: 2 days ago

TLE from 2 days ago
0 SL-8 DEB
1 21161U 91009Y   26171.45336486  .00000005  00000-0  18932-3 0  9997
2 21161  74.0719 233.6833 0132519 258.6337 111.4664 12.19452188571089
Epoch: 2026-06-20T10:52Z
TLE epoch observation values (Epoch: 2026-06-20T10:52:50.723Z)
Latitude
11.01869°
Longitude
164.97443°
Altitude
1,636.401 km
Speed
7.037 km/s
True Right ascension
15h 47m 24s
True Declination
10° 57' 41"
Sunlit
Object was in full shadow at epoch
Visualization orbit readout
Latitude
Unknown
Longitude
Unknown
Altitude
Unknown
Speed
Unknown
Apparent Right ascension
Unknown
Apparent Declination
Unknown
Sunlit
N/A
Visualization observer readout
Local Sidereal Time
23:21:47
Azimuth
Unknown
Elevation
Unknown
Doppler factor
Unknown
Orbital elements
Apogee altitude
1,698.425 km
Perigee altitude
1,487.165 km
Semi-major axis
7,970.932 km
Eccentricity
0.01325
Inclination
74.0719°
RAAN
233.6833°
Arg. of periapsis
258.6337°
True anomaly
112.87096°
Mean anomaly
111.4664°
Eccentric anomaly
112.16955°
Mean motion
3.04986 °/min
Orbital period
118.04 mins
BSTAR
0.00018932
Loading maneuver chart data...
Computing Atmospheric mass density...
Loading historical data...
Loading historical data...
Loading historical data...
Loading historical data...
Loading historical data...
Loading historical data...
Loading historical data...

Documentation

Showing up to 5 results
|